User: anonymous   Login
Location: Unspecified
(0.0000°N, 0.0000°E)
Time: 06:10:57
(UTC+00:00)
Language:

STRAND 1 - Orbit

View from above orbital plane
View from above orbital plane
View from above satellite
View from above satellite

Ground track
Ground track

The orbit data is extracted from the following two-line orbital elements,

1 39090U 13009E   18116.51323137 +.00000055 +00000-0 +34557-4 0  9994
2 39090 098.5271 323.5574 0010430 090.7212 269.5169 14.35021322270395
Epoch (UTC): 26 April 2018 12:19:03
Eccentricity: 0.0010430
inclination: 98.5271°
perigee height: 767 km
apogee height: 782 km
right ascension of ascending node: 323.5574°
argument of perigee: 90.7212°
revolutions per day: 14.35021322
mean anomaly at epoch: 269.5169°
orbit number at epoch: 27039

The dashed part of the orbit path shows where the satellite is in the earth's shadow,  

DLR